カタログに戻る

STARLINK-6374

運用中通信VLEO
NORAD 57338·PAYLOAD·🇺🇸 United States

打ち上げ Jul 16, 2023 から Cape Canaveral Space Force Station

Loading…

次のパス (今後24時間)

TLE

最新Source: CelesTrak SupGP

元期: Sep 14, 2026, 21:17 UTC

1 57338C 23099L   26257.88729167  .00018808  00000+0  68136-3 0  2577
2 57338  42.9993 264.1174 0001248 262.7788 302.1931 15.27563370    13

AllMySatでSTARLINK-6374をリアルタイム追跡

Download on the App Store